START_TIME,STEP,MOV.,AL01,t_acc.,AL02,t_acc.,E37,t_acc.,H21,t_acc.
1981-08-27 12:00:35.100 ,5,0,0.,24.0,0.,24.0,0.,24.0,0.,24.0
1981-08-27 12:00:59.100 ,4,1,0.,24.0,0.,24.0,0.,24.0,0.,24.0
1981-08-27 12:01:23.100 ,4,0,0.,24.0,0.,24.0,0.,24.0,0.,24.0
1981-08-27 12:01:47.100 ,3,1,0.,24.0,0.,24.0,0.,24.0,0.,24.0
1981-08-27 12:02:11.100 ,3,0,0.,24.0,0.,24.0,0.,24.0,0.,24.0
1981-08-27 12:02:35.100 ,2,1,0.,24.0,0.,24.0,0.,24.0,0.,24.0
1981-08-27 12:02:59.100 ,2,0,0.,24.0,0.,24.0,0.,24.0,0.,24.0
1981-08-27 12:03:23.100 ,1,1,0.,24.0,0.,24.0,0.,24.0,0.,24.0
1981-08-27 12:03:47.100 ,1,0,0.,24.0,0.,24.0,1.,24.0,0.,24.0
1981-08-27 12:04:11.100 ,0,1,0.,24.0,0.,24.0,1.,24.0,0.,24.0
1981-08-27 12:04:35.100 ,0,0,0.,24.0,0.,24.0,0.,24.0,0.,24.0
1981-08-27 12:04:59.100 ,0,1,0.,24.0,0.,24.0,1.,24.0,0.,24.0
1981-08-27 12:05:23.100 ,0,0,0.,24.0,0.,24.0,0.,24.0,0.,24.0
1981-08-27 12:05:47.100 ,1,1,0.,24.0,0.,24.0,0.,24.0,0.,24.0
1981-08-27 12:06:11.100 ,1,0,0.,24.0,0.,24.0,0.,24.0,0.,24.0
1981-08-27 12:06:35.090 ,2,1,0.,24.0,0.,24.0,0.,24.0,0.,24.0
1981-08-27 12:06:59.090 ,2,0,0.,24.0,0.,24.0,0.,24.0,0.,24.0
1981-08-27 12:07:23.090 ,3,1,0.,24.0,0.,24.0,0.,24.0,0.,24.0
1981-08-27 12:07:47.090 ,3,0,0.,24.0,0.,24.0,0.,24.0,0.,24.0
1981-08-27 12:08:11.090 ,4,1,0.,24.0,0.,24.0,0.,24.0,0.,24.0
1981-08-27 12:08:35.090 ,4,0,0.,24.0,0.,24.0,0.,24.0,0.,24.0
1981-08-27 12:08:59.090 ,5,1,0.,24.0,0.,24.0,0.,24.0,0.,24.0
1981-08-27 12:09:23.090 ,5,0,0.,24.0,0.,24.0,1.,24.0,0.,24.0
1981-08-27 12:09:47.090 ,6,1,0.,24.0,0.,24.0,0.,24.0,0.,24.0
1981-08-27 12:10:11.090 ,6,0,0.,24.0,0.,24.0,1.,24.0,0.,24.0
1981-08-27 12:11:23.090 ,0,0,40.,24.0,0.,24.0,1.,24.0,0.,24.0
1981-08-27 12:11:47.090 ,6,1,23.,24.0,0.,24.0,0.,24.0,0.,24.0
1981-08-27 12:12:11.090 ,5,1,0.,24.0,0.,24.0,0.,24.0,0.,24.0
1981-08-27 12:12:35.090 ,4,1,0.,24.0,0.,24.0,0.,24.0,0.,24.0
1981-08-27 12:12:59.090 ,3,1,0.,24.0,0.,24.0,0.,24.0,0.,24.0
1981-08-27 12:13:23.090 ,2,1,0.,24.0,0.,24.0,0.,24.0,0.,24.0
1981-08-27 12:13:47.090 ,1,1,0.,24.0,0.,24.0,1.,24.0,0.,24.0
1981-08-27 12:14:11.090 ,0,1,0.,24.0,0.,24.0,0.,24.0,0.,24.0
1981-08-27 12:14:35.090 ,0,1,0.,24.0,0.,24.0,0.,24.0,0.,24.0
1981-08-27 12:14:59.090 ,1,1,0.,24.0,0.,24.0,0.,24.0,0.,24.0
1981-08-27 12:15:23.090 ,2,1,0.,24.0,0.,24.0,0.,24.0,0.,24.0
1981-08-27 12:15:47.090 ,3,1,0.,24.0,0.,24.0,1.,24.0,0.,24.0
1981-08-27 12:16:11.090 ,4,1,0.,24.0,0.,24.0,0.,24.0,0.,24.0
1981-08-27 12:16:35.090 ,5,1,0.,24.0,0.,24.0,0.,24.0,0.,24.0
1981-08-27 12:16:59.090 ,6,1,0.,24.0,0.,24.0,0.,24.0,0.,24.0
1981-08-27 12:17:23.090 ,7,1,6.,24.0,0.,24.0,0.,24.0,0.,24.0
1981-08-27 12:17:47.090 ,7,1,31.,24.0,0.,24.0,0.,24.0,0.,24.0
1981-08-27 12:18:11.090 ,7,0,27.,24.0,0.,24.0,0.,24.0,0.,24.0
1981-08-27 12:18:35.090 ,6,1,21.,24.0,0.,24.0,1.,24.0,0.,24.0
1981-08-27 12:18:59.090 ,6,0,0.,24.0,0.,24.0,1.,24.0,0.,24.0
1981-08-27 12:19:23.090 ,5,1,0.,24.0,1.,24.0,0.,24.0,0.,24.0
1981-08-27 12:19:47.090 ,5,0,0.,24.0,0.,24.0,0.,24.0,0.,24.0
1981-08-27 12:20:11.090 ,4,1,0.,24.0,0.,24.0,0.,24.0,0.,24.0
1981-08-27 12:20:35.090 ,4,0,0.,24.0,0.,24.0,0.,24.0,0.,24.0
1981-08-27 12:20:59.090 ,3,1,0.,24.0,0.,24.0,0.,24.0,0.,24.0
1981-08-27 12:21:23.090 ,3,0,0.,24.0,0.,24.0,0.,24.0,0.,24.0
1981-08-27 12:21:47.090 ,2,1,0.,24.0,0.,24.0,0.,24.0,0.,24.0
1981-08-27 12:22:11.090 ,2,0,0.,24.0,0.,24.0,1.,24.0,0.,24.0
1981-08-27 12:22:35.090 ,1,1,0.,24.0,0.,24.0,0.,24.0,0.,24.0
1981-08-27 12:22:59.090 ,1,0,0.,24.0,0.,24.0,1.,24.0,0.,24.0
1981-08-27 12:23:23.090 ,0,1,0.,24.0,0.,24.0,0.,24.0,0.,24.0
1981-08-27 12:23:47.090 ,0,0,0.,24.0,0.,24.0,0.,24.0,0.,24.0
1981-08-27 12:24:11.090 ,0,1,0.,24.0,0.,24.0,0.,24.0,0.,24.0
1981-08-27 12:24:35.090 ,0,0,0.,24.0,0.,24.0,0.,24.0,0.,24.0
1981-08-27 12:24:59.090 ,1,1,1.,24.0,0.,24.0,0.,24.0,0.,24.0
1981-08-27 12:25:23.090 ,1,0,0.,24.0,0.,24.0,0.,24.0,0.,24.0
1981-08-27 12:25:47.090 ,2,1,0.,24.0,0.,24.0,0.,24.0,0.,24.0
1981-08-27 12:26:11.090 ,2,0,0.,24.0,0.,24.0,1.,24.0,0.,24.0
1981-08-27 12:26:35.090 ,3,1,0.,24.0,0.,24.0,0.,24.0,0.,24.0
1981-08-27 12:26:59.090 ,3,0,0.,24.0,0.,24.0,1.,24.0,0.,24.0
1981-08-27 12:27:23.090 ,4,1,0.,24.0,0.,24.0,0.,24.0,0.,24.0
1981-08-27 12:27:47.090 ,4,0,0.,24.0,0.,24.0,1.,24.0,0.,24.0
1981-08-27 12:28:11.090 ,5,1,1.,24.0,0.,24.0,0.,24.0,0.,24.0
1981-08-27 12:28:35.090 ,5,0,0.,24.0,0.,24.0,0.,24.0,0.,24.0
1981-08-27 12:28:59.090 ,6,1,0.,24.0,0.,24.0,0.,24.0,0.,24.0
1981-08-27 12:29:23.090 ,6,0,0.,24.0,0.,24.0,0.,24.0,0.,24.0
1981-08-27 12:29:47.090 ,7,1,6.,24.0,0.,24.0,0.,24.0,0.,24.0
1981-08-27 12:30:11.090 ,7,0,35.,24.0,0.,24.0,0.,24.0,0.,24.0
1981-08-27 12:30:35.090 ,7,1,36.,24.0,0.,24.0,0.,24.0,0.,24.0
1981-08-27 12:30:59.090 ,6,1,19.,24.0,0.,24.0,0.,24.0,0.,24.0
1981-08-27 12:31:23.090 ,5,1,0.,24.0,0.,24.0,0.,24.0,0.,24.0
1981-08-27 12:31:47.090 ,4,1,0.,24.0,0.,24.0,1.,24.0,0.,24.0
1981-08-27 12:32:11.090 ,3,1,0.,24.0,0.,24.0,0.,24.0,0.,24.0
1981-08-27 12:32:35.090 ,2,1,0.,24.0,0.,24.0,0.,24.0,0.,24.0
1981-08-27 12:32:59.090 ,1,1,0.,24.0,0.,24.0,0.,24.0,0.,24.0
1981-08-27 12:33:23.090 ,0,1,0.,24.0,0.,24.0,1.,24.0,0.,24.0
1981-08-27 12:33:47.090 ,0,1,1.,24.0,0.,24.0,0.,24.0,0.,24.0
1981-08-27 12:34:11.090 ,1,1,0.,24.0,0.,24.0,0.,24.0,0.,24.0
1981-08-27 12:34:35.090 ,2,1,0.,24.0,0.,24.0,0.,24.0,0.,24.0
1981-08-27 12:34:59.090 ,3,1,0.,24.0,0.,24.0,1.,24.0,0.,24.0
1981-08-27 12:36:11.090 ,0,0,0.,24.0,0.,24.0,0.,24.0,0.,24.0
1981-08-27 12:36:35.090 ,7,1,4.,24.0,1.,24.0,0.,24.0,0.,24.0
1981-08-27 12:36:59.090 ,7,1,27.,24.0,0.,24.0,1.,24.0,0.,24.0
1981-08-27 12:37:23.090 ,7,0,35.,24.0,0.,24.0,0.,24.0,0.,24.0
1981-08-27 12:37:47.090 ,6,1,20.,24.0,0.,24.0,1.,24.0,0.,24.0
1981-08-27 12:38:11.090 ,6,0,0.,24.0,0.,24.0,1.,24.0,0.,24.0
1981-08-27 12:38:35.090 ,5,1,0.,24.0,0.,24.0,0.,24.0,0.,24.0
1981-08-27 12:38:59.090 ,5,0,0.,24.0,0.,24.0,0.,24.0,0.,24.0
1981-08-27 12:39:23.090 ,4,1,0.,24.0,0.,24.0,0.,24.0,0.,24.0
1981-08-27 12:39:47.090 ,4,0,0.,24.0,0.,24.0,0.,24.0,0.,24.0
1981-08-27 12:40:11.090 ,3,1,0.,24.0,0.,24.0,0.,24.0,0.,24.0
1981-08-27 12:40:35.090 ,3,0,0.,24.0,0.,24.0,0.,24.0,0.,24.0
1981-08-27 12:40:59.090 ,2,1,0.,24.0,0.,24.0,1.,24.0,0.,24.0
1981-08-27 12:41:23.090 ,2,0,1.,24.0,0.,24.0,0.,24.0,0.,24.0
1981-08-27 12:41:47.090 ,1,1,0.,24.0,0.,24.0,1.,24.0,0.,24.0
1981-08-27 12:42:11.090 ,1,0,0.,24.0,0.,24.0,0.,24.0,0.,24.0
1981-08-27 12:42:35.090 ,0,1,0.,24.0,0.,24.0,2.,24.0,0.,24.0
1981-08-27 12:42:59.090 ,0,0,0.,24.0,0.,24.0,0.,24.0,0.,24.0
1981-08-27 12:43:23.090 ,0,1,0.,24.0,0.,24.0,0.,24.0,0.,24.0
1981-08-27 12:43:47.090 ,0,0,0.,24.0,0.,24.0,0.,24.0,0.,24.0
1981-08-27 12:44:11.090 ,1,1,0.,24.0,0.,24.0,0.,24.0,0.,24.0
1981-08-27 12:44:35.090 ,1,0,0.,24.0,0.,24.0,0.,24.0,0.,24.0
1981-08-27 12:44:59.090 ,2,1,0.,24.0,0.,24.0,0.,24.0,0.,24.0
1981-08-27 12:45:23.090 ,2,0,0.,24.0,0.,24.0,0.,24.0,0.,24.0
1981-08-27 12:45:47.090 ,3,1,0.,24.0,0.,24.0,1.,24.0,0.,24.0
1981-08-27 12:46:11.090 ,3,0,0.,24.0,0.,24.0,1.,24.0,0.,24.0
1981-08-27 12:46:35.090 ,4,1,0.,24.0,0.,24.0,0.,24.0,0.,24.0
1981-08-27 12:46:59.090 ,4,0,1.,24.0,0.,24.0,0.,24.0,0.,24.0
1981-08-27 12:47:23.090 ,5,1,0.,24.0,0.,24.0,1.,24.0,0.,24.0
1981-08-27 12:47:47.090 ,5,0,0.,24.0,0.,24.0,0.,24.0,0.,24.0
1981-08-27 12:48:11.090 ,6,1,0.,24.0,0.,24.0,0.,24.0,0.,24.0
1981-08-27 12:48:35.090 ,6,0,0.,24.0,0.,24.0,0.,24.0,0.,24.0
1981-08-27 12:48:59.090 ,7,1,8.,24.0,0.,24.0,2.,24.0,0.,24.0
1981-08-27 12:49:23.090 ,7,0,34.,24.0,0.,24.0,0.,24.0,0.,24.0
1981-08-27 12:49:47.090 ,7,1,35.,24.0,0.,24.0,1.,24.0,0.,24.0
1981-08-27 12:50:11.090 ,6,1,30.,24.0,0.,24.0,0.,24.0,0.,24.0
1981-08-27 12:50:35.090 ,5,1,0.,24.0,0.,24.0,2.,24.0,0.,24.0
1981-08-27 12:50:59.090 ,4,1,0.,24.0,0.,24.0,0.,24.0,0.,24.0
1981-08-27 12:51:23.090 ,3,1,0.,24.0,0.,24.0,0.,24.0,0.,24.0
1981-08-27 12:51:47.090 ,2,1,0.,24.0,0.,24.0,0.,24.0,0.,24.0
1981-08-27 12:52:11.090 ,1,1,0.,24.0,0.,24.0,0.,24.0,0.,24.0
1981-08-27 12:52:35.090 ,0,1,0.,24.0,0.,24.0,1.,24.0,0.,24.0
1981-08-27 12:52:59.090 ,0,1,0.,24.0,0.,24.0,0.,24.0,0.,24.0
1981-08-27 12:53:23.090 ,1,1,0.,24.0,0.,24.0,0.,24.0,0.,24.0
1981-08-27 12:53:47.090 ,2,1,0.,24.0,1.,24.0,0.,24.0,0.,24.0
1981-08-27 12:54:11.090 ,3,1,0.,24.0,0.,24.0,0.,24.0,0.,24.0
1981-08-27 12:54:35.090 ,4,1,0.,24.0,0.,24.0,0.,24.0,0.,24.0
1981-08-27 12:54:59.090 ,5,1,0.,24.0,0.,24.0,0.,24.0,0.,24.0
1981-08-27 12:55:23.090 ,6,1,0.,24.0,0.,24.0,0.,24.0,0.,24.0
1981-08-27 12:55:47.090 ,7,1,8.,24.0,0.,24.0,0.,24.0,0.,24.0
1981-08-27 12:56:11.090 ,7,1,24.,24.0,0.,24.0,0.,24.0,0.,24.0
1981-08-27 12:56:35.090 ,7,0,26.,24.0,0.,24.0,0.,24.0,0.,24.0
1981-08-27 12:56:59.090 ,6,1,25.,24.0,0.,24.0,0.,24.0,0.,24.0
1981-08-27 12:57:23.090 ,6,0,0.,24.0,0.,24.0,0.,24.0,0.,24.0
1981-08-27 12:57:47.090 ,5,1,0.,24.0,0.,24.0,0.,24.0,0.,24.0
1981-08-27 12:58:11.090 ,5,0,0.,24.0,0.,24.0,0.,24.0,0.,24.0
1981-08-27 12:58:35.090 ,4,1,0.,24.0,0.,24.0,0.,24.0,0.,24.0
1981-08-27 12:58:59.090 ,4,0,0.,24.0,0.,24.0,0.,24.0,0.,24.0
1981-08-27 12:59:23.090 ,3,1,0.,24.0,0.,24.0,0.,24.0,0.,24.0
1981-08-27 12:59:47.090 ,3,0,0.,24.0,0.,24.0,0.,24.0,0.,24.0
1981-08-27 13:00:11.090 ,2,1,0.,24.0,0.,24.0,0.,24.0,0.,24.0
1981-08-27 13:00:35.090 ,2,0,0.,24.0,0.,24.0,0.,24.0,0.,24.0
1981-08-27 13:00:59.090 ,1,1,0.,24.0,0.,24.0,0.,24.0,0.,24.0
1981-08-27 13:01:23.090 ,1,0,0.,24.0,0.,24.0,0.,24.0,0.,24.0
1981-08-27 13:01:47.090 ,0,1,0.,24.0,0.,24.0,0.,24.0,0.,24.0
1981-08-27 13:02:11.090 ,0,0,0.,24.0,0.,24.0,0.,24.0,0.,24.0
1981-08-27 13:02:35.090 ,0,1,0.,24.0,0.,24.0,1.,24.0,0.,24.0
1981-08-27 13:02:59.090 ,0,0,0.,24.0,0.,24.0,0.,24.0,0.,24.0
1981-08-27 13:03:23.090 ,1,1,0.,24.0,0.,24.0,0.,24.0,0.,24.0
1981-08-27 13:03:47.090 ,1,0,0.,24.0,0.,24.0,3.,24.0,0.,24.0
1981-08-27 13:04:11.090 ,2,1,0.,24.0,0.,24.0,0.,24.0,0.,24.0
1981-08-27 13:04:35.090 ,2,0,0.,24.0,0.,24.0,1.,24.0,0.,24.0
1981-08-27 13:04:59.090 ,3,1,0.,24.0,0.,24.0,0.,24.0,0.,24.0
1981-08-27 13:05:23.090 ,3,0,0.,24.0,0.,24.0,0.,24.0,0.,24.0
1981-08-27 13:05:47.090 ,4,1,0.,24.0,0.,24.0,0.,24.0,0.,24.0
1981-08-27 13:06:11.090 ,4,0,0.,24.0,0.,24.0,2.,24.0,0.,24.0
1981-08-27 13:06:35.090 ,5,1,1.,24.0,0.,24.0,0.,24.0,0.,24.0
1981-08-27 13:06:59.090 ,5,0,0.,24.0,0.,24.0,0.,24.0,0.,24.0
1981-08-27 13:07:23.090 ,6,1,0.,24.0,0.,24.0,0.,24.0,0.,24.0
1981-08-27 13:07:47.090 ,6,0,0.,24.0,0.,24.0,0.,24.0,0.,24.0
1981-08-27 13:08:11.090 ,7,1,7.,24.0,0.,24.0,0.,24.0,0.,24.0
1981-08-27 13:08:35.090 ,7,0,36.,24.0,0.,24.0,0.,24.0,0.,24.0
1981-08-27 13:08:59.090 ,7,1,35.,24.0,0.,24.0,0.,24.0,0.,24.0
1981-08-27 13:09:23.090 ,6,1,13.,24.0,0.,24.0,0.,24.0,0.,24.0
1981-08-27 13:09:47.090 ,5,1,0.,24.0,0.,24.0,0.,24.0,0.,24.0
1981-08-27 13:10:11.090 ,4,1,0.,24.0,0.,24.0,0.,24.0,0.,24.0
1981-08-27 13:10:35.090 ,3,1,0.,24.0,0.,24.0,0.,24.0,0.,24.0
1981-08-27 13:10:59.090 ,2,1,0.,24.0,0.,24.0,0.,24.0,0.,24.0
1981-08-27 13:11:23.090 ,1,1,0.,24.0,0.,24.0,0.,24.0,0.,24.0
1981-08-27 13:11:47.090 ,0,1,0.,24.0,0.,24.0,0.,24.0,0.,24.0
1981-08-27 13:12:11.090 ,0,1,0.,24.0,0.,24.0,0.,24.0,0.,24.0
1981-08-27 13:12:35.090 ,1,1,0.,24.0,0.,24.0,0.,24.0,0.,24.0
1981-08-27 13:12:59.090 ,2,1,0.,24.0,0.,24.0,0.,24.0,0.,24.0
1981-08-27 13:13:23.090 ,3,1,0.,24.0,0.,24.0,0.,24.0,0.,24.0
1981-08-27 13:13:47.090 ,4,1,0.,24.0,0.,24.0,0.,24.0,0.,24.0
1981-08-27 13:14:11.090 ,5,1,0.,24.0,0.,24.0,0.,24.0,0.,24.0
1981-08-27 13:14:35.090 ,6,1,0.,24.0,0.,24.0,0.,24.0,0.,24.0
1981-08-27 13:14:59.090 ,7,1,2.,24.0,0.,24.0,0.,24.0,0.,24.0
1981-08-27 13:15:23.090 ,7,1,31.,24.0,0.,24.0,0.,24.0,0.,24.0
1981-08-27 13:15:47.090 ,7,0,31.,24.0,0.,24.0,0.,24.0,0.,24.0
1981-08-27 13:16:11.090 ,6,1,25.,24.0,0.,24.0,0.,24.0,0.,24.0
1981-08-27 13:16:35.090 ,6,0,0.,24.0,0.,24.0,0.,24.0,0.,24.0
1981-08-27 13:16:59.090 ,5,1,0.,24.0,0.,24.0,0.,24.0,0.,24.0
1981-08-27 13:17:23.090 ,0,0,0.,24.0,0.,24.0,0.,24.0,0.,24.0
1981-08-27 13:17:50.090 ,0,0,0.,24.0,0.,24.0,0.,24.0,0.,24.0
1981-08-27 13:18:11.090 ,0,0,0.,24.0,0.,24.0,0.,24.0,0.,24.0
1981-08-27 13:18:35.090 ,3,1,0.,24.0,0.,24.0,1.,24.0,0.,24.0
1981-08-27 13:18:59.090 ,3,0,0.,24.0,0.,24.0,1.,24.0,0.,24.0
1981-08-27 13:19:23.090 ,2,1,0.,24.0,0.,24.0,0.,24.0,0.,24.0
1981-08-27 13:19:47.090 ,2,0,0.,24.0,0.,24.0,0.,24.0,0.,24.0
1981-08-27 13:20:11.090 ,1,1,0.,24.0,0.,24.0,0.,24.0,0.,24.0
1981-08-27 13:20:35.090 ,1,0,0.,24.0,0.,24.0,0.,24.0,0.,24.0
1981-08-27 13:20:59.090 ,0,1,0.,24.0,0.,24.0,1.,24.0,0.,24.0
1981-08-27 13:21:23.090 ,0,0,0.,24.0,0.,24.0,0.,24.0,0.,24.0
1981-08-27 13:21:47.090 ,0,1,0.,24.0,0.,24.0,0.,24.0,0.,24.0
1981-08-27 13:22:11.090 ,0,0,0.,24.0,0.,24.0,0.,24.0,0.,24.0
1981-08-27 13:22:35.090 ,1,1,0.,24.0,0.,24.0,1.,24.0,0.,24.0
1981-08-27 13:22:59.090 ,1,0,0.,24.0,0.,24.0,0.,24.0,0.,24.0
1981-08-27 13:23:23.090 ,2,1,0.,24.0,0.,24.0,1.,24.0,0.,24.0
1981-08-27 13:23:47.090 ,2,0,0.,24.0,0.,24.0,0.,24.0,0.,24.0
1981-08-27 13:24:11.090 ,3,1,0.,24.0,0.,24.0,2.,24.0,0.,24.0
1981-08-27 13:24:35.090 ,3,0,0.,24.0,0.,24.0,0.,24.0,0.,24.0
1981-08-27 13:24:59.090 ,4,1,0.,24.0,0.,24.0,0.,24.0,0.,24.0
1981-08-27 13:25:23.090 ,4,0,0.,24.0,0.,24.0,0.,24.0,0.,24.0
1981-08-27 13:25:47.090 ,5,1,0.,24.0,0.,24.0,0.,24.0,0.,24.0
1981-08-27 13:26:11.090 ,5,0,0.,24.0,0.,24.0,0.,24.0,0.,24.0
1981-08-27 13:26:35.090 ,6,1,0.,24.0,0.,24.0,1.,24.0,0.,24.0
1981-08-27 13:26:59.090 ,6,0,0.,24.0,0.,24.0,1.,24.0,0.,24.0
1981-08-27 13:27:23.090 ,7,1,4.,24.0,0.,24.0,1.,24.0,0.,24.0
1981-08-27 13:27:47.090 ,7,0,25.,24.0,0.,24.0,0.,24.0,0.,24.0
1981-08-27 13:28:59.090 ,0,0,0.,24.0,0.,24.0,1.,24.0,0.,24.0
1981-08-27 13:29:23.090 ,4,1,0.,24.0,0.,24.0,0.,24.0,0.,24.0
1981-08-27 13:29:47.090 ,3,1,0.,24.0,0.,24.0,0.,24.0,0.,24.0
1981-08-27 13:30:11.090 ,2,1,0.,24.0,0.,24.0,0.,24.0,0.,24.0
1981-08-27 13:30:35.090 ,1,1,0.,24.0,0.,24.0,0.,24.0,0.,24.0
1981-08-27 13:30:59.090 ,0,1,0.,24.0,0.,24.0,0.,24.0,0.,24.0
1981-08-27 13:31:23.090 ,0,1,0.,24.0,0.,24.0,0.,24.0,0.,24.0
1981-08-27 13:31:47.090 ,1,1,0.,24.0,0.,24.0,0.,24.0,0.,24.0
1981-08-27 13:32:11.090 ,2,1,0.,24.0,0.,24.0,0.,24.0,0.,24.0
1981-08-27 13:32:35.090 ,3,1,0.,24.0,0.,24.0,0.,24.0,0.,24.0
1981-08-27 13:32:59.090 ,4,1,0.,24.0,0.,24.0,1.,24.0,0.,24.0
1981-08-27 13:33:23.090 ,5,1,0.,24.0,0.,24.0,0.,24.0,0.,24.0
1981-08-27 13:33:47.090 ,6,1,0.,24.0,0.,24.0,0.,24.0,0.,24.0
1981-08-27 13:34:11.090 ,7,1,4.,24.0,0.,24.0,0.,24.0,0.,24.0
1981-08-27 13:34:35.090 ,7,1,28.,24.0,0.,24.0,0.,24.0,0.,24.0
1981-08-27 13:34:59.090 ,7,0,20.,24.0,0.,24.0,1.,24.0,0.,24.0
1981-08-27 13:35:23.090 ,6,1,18.,24.0,0.,24.0,0.,24.0,0.,24.0
1981-08-27 13:35:47.090 ,6,0,0.,24.0,0.,24.0,1.,24.0,0.,24.0
1981-08-27 13:36:11.090 ,5,1,0.,24.0,0.,24.0,0.,24.0,0.,24.0
1981-08-27 13:36:35.090 ,5,0,0.,24.0,0.,24.0,0.,24.0,0.,24.0
1981-08-27 13:37:47.090 ,0,0,0.,24.0,0.,24.0,0.,24.0,0.,24.0
1981-08-27 13:38:11.090 ,0,0,0.,24.0,0.,24.0,0.,24.0,0.,24.0
1981-08-27 13:38:35.090 ,2,1,0.,24.0,0.,24.0,0.,24.0,0.,24.0
1981-08-27 13:38:59.090 ,2,0,0.,24.0,0.,24.0,0.,24.0,0.,24.0
1981-08-27 13:39:23.090 ,1,1,0.,24.0,0.,24.0,0.,24.0,0.,24.0
1981-08-27 13:39:47.090 ,1,0,0.,24.0,0.,24.0,0.,24.0,0.,24.0
1981-08-27 13:40:11.090 ,0,1,0.,24.0,0.,24.0,0.,24.0,0.,24.0
1981-08-27 13:40:35.090 ,0,0,0.,24.0,0.,24.0,0.,24.0,0.,24.0
1981-08-27 13:40:59.090 ,0,1,0.,24.0,0.,24.0,0.,24.0,0.,24.0
1981-08-27 13:41:23.090 ,0,0,0.,24.0,1.,24.0,0.,24.0,0.,24.0
1981-08-27 13:41:47.090 ,1,1,0.,24.0,0.,24.0,2.,24.0,0.,24.0
1981-08-27 13:42:11.090 ,1,0,0.,24.0,0.,24.0,0.,24.0,0.,24.0
1981-08-27 13:42:35.090 ,2,1,0.,24.0,0.,24.0,1.,24.0,0.,24.0
1981-08-27 13:42:59.090 ,2,0,0.,24.0,0.,24.0,1.,24.0,0.,24.0
1981-08-27 13:43:23.090 ,3,1,1.,24.0,0.,24.0,1.,24.0,0.,24.0
1981-08-27 13:43:47.090 ,3,0,0.,24.0,0.,24.0,1.,24.0,0.,24.0
1981-08-27 13:44:11.090 ,4,1,0.,24.0,0.,24.0,0.,24.0,0.,24.0
1981-08-27 13:44:35.090 ,4,0,0.,24.0,0.,24.0,0.,24.0,0.,24.0
1981-08-27 13:44:59.090 ,5,1,0.,24.0,0.,24.0,0.,24.0,0.,24.0
1981-08-27 13:45:23.090 ,5,0,0.,24.0,0.,24.0,0.,24.0,0.,24.0
1981-08-27 13:45:47.090 ,6,1,0.,24.0,0.,24.0,1.,24.0,0.,24.0
1981-08-27 13:46:11.090 ,6,0,0.,24.0,0.,24.0,1.,24.0,0.,24.0
1981-08-27 13:46:35.090 ,7,1,7.,24.0,0.,24.0,1.,24.0,0.,24.0
1981-08-27 13:46:59.090 ,7,0,37.,24.0,0.,24.0,1.,24.0,0.,24.0
1981-08-27 13:47:23.090 ,7,1,38.,24.0,0.,24.0,1.,24.0,0.,24.0
1981-08-27 13:47:47.090 ,6,1,20.,24.0,0.,24.0,1.,24.0,0.,24.0
1981-08-27 13:48:11.090 ,5,1,0.,24.0,1.,24.0,1.,24.0,0.,24.0
1981-08-27 13:48:35.090 ,4,1,0.,24.0,0.,24.0,2.,24.0,0.,24.0
1981-08-27 13:48:59.090 ,3,1,0.,24.0,0.,24.0,0.,24.0,0.,24.0
1981-08-27 13:49:23.090 ,2,1,0.,24.0,0.,24.0,0.,24.0,0.,24.0
1981-08-27 13:49:47.090 ,1,1,0.,24.0,0.,24.0,0.,24.0,0.,24.0
1981-08-27 13:50:11.090 ,0,1,0.,24.0,0.,24.0,0.,24.0,0.,24.0
1981-08-27 13:50:35.090 ,0,1,0.,24.0,0.,24.0,0.,24.0,0.,24.0
1981-08-27 13:50:59.090 ,1,1,0.,24.0,0.,24.0,1.,24.0,0.,24.0
1981-08-27 13:51:23.090 ,2,1,0.,24.0,0.,24.0,1.,24.0,0.,24.0
1981-08-27 13:51:47.090 ,3,1,0.,24.0,0.,24.0,0.,24.0,0.,24.0
1981-08-27 13:52:11.090 ,4,1,0.,24.0,0.,24.0,1.,24.0,0.,24.0
1981-08-27 13:52:35.090 ,5,1,0.,24.0,0.,24.0,0.,24.0,0.,24.0
1981-08-27 13:52:59.090 ,6,1,0.,24.0,0.,24.0,0.,24.0,0.,24.0
1981-08-27 13:53:23.090 ,7,1,4.,24.0,0.,24.0,0.,24.0,0.,24.0
1981-08-27 13:53:47.090 ,7,1,35.,24.0,0.,24.0,1.,24.0,0.,24.0
1981-08-27 13:54:11.090 ,7,0,24.,24.0,0.,24.0,0.,24.0,0.,24.0
1981-08-27 13:54:35.090 ,6,1,30.,24.0,0.,24.0,0.,24.0,0.,24.0
1981-08-27 13:54:59.090 ,6,0,0.,24.0,0.,24.0,0.,24.0,0.,24.0
1981-08-27 13:55:23.090 ,5,1,0.,24.0,0.,24.0,1.,24.0,0.,24.0
1981-08-27 13:55:47.090 ,5,0,0.,24.0,0.,24.0,0.,24.0,0.,24.0
1981-08-27 13:56:11.090 ,4,1,0.,24.0,0.,24.0,0.,24.0,0.,24.0
1981-08-27 13:56:35.090 ,4,0,0.,24.0,0.,24.0,0.,24.0,0.,24.0
1981-08-27 13:56:59.090 ,3,1,0.,24.0,0.,24.0,0.,24.0,0.,24.0
1981-08-27 13:57:23.090 ,3,0,1.,24.0,0.,24.0,0.,24.0,0.,24.0
1981-08-27 13:57:47.090 ,2,1,0.,24.0,1.,24.0,0.,24.0,0.,24.0
1981-08-27 13:58:11.090 ,2,0,0.,24.0,0.,24.0,0.,24.0,0.,24.0
1981-08-27 13:58:35.090 ,1,1,0.,24.0,0.,24.0,0.,24.0,0.,24.0
1981-08-27 13:58:59.090 ,1,0,0.,24.0,0.,24.0,0.,24.0,0.,24.0
1981-08-27 13:59:23.090 ,0,1,0.,24.0,0.,24.0,0.,24.0,0.,24.0
1981-08-27 13:59:47.090 ,0,0,0.,24.0,0.,24.0,0.,24.0,0.,24.0
1981-08-27 14:00:35.090 ,0,0,0.,24.0,0.,24.0,0.,24.0,0.,24.0
1981-08-27 14:00:59.090 ,1,1,0.,24.0,0.,24.0,0.,24.0,0.,24.0
1981-08-27 14:01:23.090 ,1,0,0.,24.0,0.,24.0,0.,24.0,0.,24.0
1981-08-27 14:01:47.090 ,2,1,0.,24.0,0.,24.0,0.,24.0,0.,24.0
1981-08-27 14:02:11.090 ,2,0,0.,24.0,0.,24.0,1.,24.0,0.,24.0
1981-08-27 14:02:35.090 ,3,1,0.,24.0,0.,24.0,0.,24.0,0.,24.0
1981-08-27 14:02:59.090 ,3,0,0.,24.0,0.,24.0,0.,24.0,0.,24.0
1981-08-27 14:03:23.090 ,4,1,0.,24.0,0.,24.0,0.,24.0,0.,24.0
1981-08-27 14:03:47.090 ,4,0,0.,24.0,0.,24.0,1.,24.0,0.,24.0
1981-08-27 14:04:11.090 ,5,1,1.,24.0,0.,24.0,0.,24.0,0.,24.0
1981-08-27 14:04:35.090 ,5,0,0.,24.0,0.,24.0,0.,24.0,0.,24.0
1981-08-27 14:04:59.090 ,6,1,0.,24.0,0.,24.0,0.,24.0,0.,24.0
1981-08-27 14:05:23.090 ,6,0,0.,24.0,0.,24.0,0.,24.0,0.,24.0
1981-08-27 14:05:47.090 ,7,1,5.,24.0,0.,24.0,1.,24.0,0.,24.0
1981-08-27 14:06:11.090 ,7,0,29.,24.0,0.,24.0,0.,24.0,0.,24.0
1981-08-27 14:06:35.090 ,7,1,28.,24.0,0.,24.0,0.,24.0,0.,24.0
1981-08-27 14:06:59.090 ,6,1,20.,24.0,0.,24.0,0.,24.0,0.,24.0
1981-08-27 14:07:23.090 ,5,1,0.,24.0,0.,24.0,0.,24.0,0.,24.0
1981-08-27 14:07:47.090 ,4,1,0.,24.0,0.,24.0,0.,24.0,0.,24.0
1981-08-27 14:08:11.090 ,3,1,1.,24.0,0.,24.0,0.,24.0,0.,24.0
1981-08-27 14:08:35.090 ,2,1,0.,24.0,0.,24.0,0.,24.0,0.,24.0
1981-08-27 14:08:59.090 ,1,1,0.,24.0,0.,24.0,0.,24.0,0.,24.0
1981-08-27 14:09:23.090 ,0,1,0.,24.0,0.,24.0,0.,24.0,0.,24.0
1981-08-27 14:09:47.090 ,0,1,0.,24.0,0.,24.0,0.,24.0,0.,24.0
1981-08-27 14:10:11.090 ,1,1,0.,24.0,0.,24.0,2.,24.0,0.,24.0
1981-08-27 14:10:35.090 ,2,1,0.,24.0,0.,24.0,0.,24.0,0.,24.0
1981-08-27 14:10:59.090 ,3,1,1.,24.0,0.,24.0,0.,24.0,0.,24.0
1981-08-27 14:11:23.090 ,4,1,0.,24.0,0.,24.0,0.,24.0,0.,24.0
1981-08-27 14:11:47.090 ,5,1,0.,24.0,0.,24.0,0.,24.0,0.,24.0
1981-08-27 14:12:11.090 ,6,1,0.,24.0,0.,24.0,1.,24.0,0.,24.0
1981-08-27 14:12:35.090 ,0,0,5.,24.0,0.,24.0,0.,24.0,0.,24.0
1981-08-27 14:16:28.490 ,0,0,,0,,0,,0,,0
1981-08-27 14:16:35.090 ,0,0,0.,24.0,0.,24.0,1.,24.0,0.,24.0
1981-08-27 14:16:59.090 ,2,1,0.,24.0,0.,24.0,0.,24.0,0.,24.0
1981-08-27 14:17:23.090 ,2,0,0.,24.0,0.,24.0,0.,24.0,0.,24.0
1981-08-27 14:17:47.090 ,1,1,0.,24.0,0.,24.0,0.,24.0,0.,24.0
1981-08-27 14:18:11.090 ,1,0,0.,24.0,0.,24.0,0.,24.0,0.,24.0
1981-08-27 14:18:35.090 ,0,1,0.,24.0,0.,24.0,0.,24.0,0.,24.0
1981-08-27 14:18:59.090 ,0,0,0.,24.0,0.,24.0,0.,24.0,0.,24.0
1981-08-27 14:19:23.090 ,0,1,0.,24.0,1.,24.0,1.,24.0,0.,24.0
1981-08-27 14:19:47.090 ,0,0,0.,24.0,0.,24.0,0.,24.0,0.,24.0
1981-08-27 14:20:11.090 ,1,1,0.,24.0,0.,24.0,0.,24.0,0.,24.0
1981-08-27 14:20:35.090 ,1,0,0.,24.0,0.,24.0,0.,24.0,0.,24.0
1981-08-27 14:20:59.090 ,2,1,0.,24.0,0.,24.0,0.,24.0,0.,24.0
1981-08-27 14:21:23.090 ,2,0,0.,24.0,0.,24.0,0.,24.0,0.,24.0
1981-08-27 14:21:47.090 ,3,1,0.,24.0,0.,24.0,1.,24.0,0.,24.0
1981-08-27 14:22:11.090 ,3,0,0.,24.0,0.,24.0,0.,24.0,0.,24.0
1981-08-27 14:22:35.090 ,4,1,0.,24.0,0.,24.0,0.,24.0,0.,24.0
1981-08-27 14:22:59.090 ,4,0,0.,24.0,0.,24.0,0.,24.0,0.,24.0
1981-08-27 14:23:23.090 ,5,1,0.,24.0,0.,24.0,1.,24.0,0.,24.0
1981-08-27 14:23:47.090 ,5,0,0.,24.0,0.,24.0,0.,24.0,0.,24.0
1981-08-27 14:24:11.090 ,6,1,0.,24.0,0.,24.0,0.,24.0,0.,24.0
1981-08-27 14:24:35.090 ,6,0,0.,24.0,0.,24.0,0.,24.0,0.,24.0
1981-08-27 14:24:59.090 ,7,1,8.,24.0,0.,24.0,0.,24.0,0.,24.0
1981-08-27 14:25:23.090 ,7,0,31.,24.0,0.,24.0,0.,24.0,0.,24.0
1981-08-27 14:25:47.090 ,7,1,40.,24.0,0.,24.0,0.,24.0,0.,24.0
1981-08-27 14:26:11.090 ,6,1,30.,24.0,0.,24.0,0.,24.0,0.,24.0
1981-08-27 14:27:23.090 ,0,0,0.,24.0,0.,24.0,2.,24.0,0.,24.0
1981-08-27 14:27:47.090 ,2,1,0.,24.0,0.,24.0,0.,24.0,0.,24.0
1981-08-27 14:28:11.090 ,1,1,0.,24.0,0.,24.0,0.,24.0,0.,24.0
1981-08-27 14:28:35.090 ,0,1,0.,24.0,0.,24.0,0.,24.0,0.,24.0
1981-08-27 14:28:59.090 ,0,1,0.,24.0,0.,24.0,0.,24.0,0.,24.0
1981-08-27 14:29:23.090 ,1,1,0.,24.0,0.,24.0,0.,24.0,0.,24.0
1981-08-27 14:29:47.090 ,2,1,0.,24.0,0.,24.0,2.,24.0,0.,24.0
1981-08-27 14:30:11.090 ,3,1,0.,24.0,0.,24.0,0.,24.0,0.,24.0
1981-08-27 14:30:35.090 ,4,1,0.,24.0,0.,24.0,0.,24.0,0.,24.0
1981-08-27 14:30:59.090 ,5,1,0.,24.0,0.,24.0,0.,24.0,0.,24.0
1981-08-27 14:31:23.090 ,6,1,0.,24.0,0.,24.0,0.,24.0,0.,24.0
1981-08-27 14:31:47.090 ,7,1,11.,24.0,0.,24.0,0.,24.0,0.,24.0
1981-08-27 14:32:11.090 ,7,1,36.,24.0,0.,24.0,0.,24.0,0.,24.0
1981-08-27 14:32:35.090 ,7,0,21.,24.0,0.,24.0,1.,24.0,0.,24.0
1981-08-27 14:32:59.090 ,6,1,27.,24.0,0.,24.0,0.,24.0,0.,24.0
1981-08-27 14:33:23.090 ,6,0,0.,24.0,0.,24.0,0.,24.0,0.,24.0
1981-08-27 14:33:47.090 ,5,1,0.,24.0,0.,24.0,0.,24.0,0.,24.0
1981-08-27 14:34:11.090 ,5,0,0.,24.0,0.,24.0,0.,24.0,0.,24.0
1981-08-27 14:34:35.090 ,4,1,0.,24.0,0.,24.0,0.,24.0,0.,24.0
1981-08-27 14:34:59.090 ,4,0,0.,24.0,0.,24.0,0.,24.0,0.,24.0
1981-08-27 14:35:23.090 ,0,0,0.,24.0,0.,24.0,0.,24.0,0.,24.0
1981-08-27 14:35:47.090 ,0,0,0.,24.0,0.,24.0,0.,24.0,0.,24.0
1981-08-27 14:36:11.090 ,2,1,0.,24.0,0.,24.0,0.,24.0,0.,24.0
1981-08-27 14:36:35.090 ,2,0,0.,24.0,0.,24.0,1.,24.0,0.,24.0
1981-08-27 14:36:59.080 ,1,1,0.,24.0,0.,24.0,1.,24.0,0.,24.0
1981-08-27 14:37:23.080 ,1,0,0.,24.0,0.,24.0,0.,24.0,0.,24.0
1981-08-27 14:37:47.080 ,0,1,0.,24.0,0.,24.0,0.,24.0,0.,24.0
1981-08-27 14:38:11.080 ,0,0,0.,24.0,0.,24.0,0.,24.0,0.,24.0
1981-08-27 14:38:35.080 ,0,1,0.,24.0,0.,24.0,1.,24.0,0.,24.0
1981-08-27 14:38:59.080 ,0,0,0.,24.0,0.,24.0,1.,24.0,0.,24.0
1981-08-27 14:39:23.080 ,1,1,0.,24.0,0.,24.0,2.,24.0,0.,24.0
1981-08-27 14:39:47.080 ,1,0,1.,24.0,0.,24.0,0.,24.0,0.,24.0
1981-08-27 14:40:11.080 ,2,1,0.,24.0,0.,24.0,0.,24.0,0.,24.0
1981-08-27 14:40:35.080 ,2,0,0.,24.0,0.,24.0,0.,24.0,0.,24.0
1981-08-27 14:40:59.080 ,3,1,0.,24.0,0.,24.0,0.,24.0,0.,24.0
1981-08-27 14:41:23.080 ,3,0,0.,24.0,0.,24.0,0.,24.0,0.,24.0
1981-08-27 14:41:47.080 ,4,1,0.,24.0,0.,24.0,2.,24.0,0.,24.0